Regional Weather Roundup
Issued by NWS New Orleans/Baton Rouge, LA

Home | Current Version | Previous Version | Graphics & Text | Print | Product List | Glossary On
Versions: 1 2 3 4 5 6 7 8 9 10 11 12 13 14 15 16 17 18 19 20 21 22 23 24 25 26 27 28 29 30 31 32 33 34 35 36 37 38 39 40 41 42 43 44 45 46 47 48 49 50
418
ASUS44 KLIX 281105
RWRLIX
NEW ORLEANS REGIONAL WEATHER ROUNDUP
NATIONAL WEATHER SERVICE NEW ORLEANS LA
500 AM CST WED JAN 28 2015

NOTE: "FAIR" INDICATES FEW OR NO CLOUDS BELOW 12,000 FEET WITH NO
      SIGNIFICANT WEATHER AND/OR OBSTRUCTIONS TO VISIBILITY.
      SKY/WX - SKY CONDITION AND SIGNIFICANT WEATHER.
      TMP - AIR TEMPERATURE.     DP    - DEWPOINT TEMPERATURE.
      RH  - RELATIVE HUMIDITY.   PRES  - PRESSURE.
      HI  - HEAT INDEX.          WCI   - WIND CHILL INDEX.

*  THESE STATIONS ARE NOT NWS OR FAA STATIONS AND ARE NOT UNDER
   NWS QUALITY CONTROL.

LAZ038-040-048-061>063-065>067-069-281200-
SOUTHEAST LOUISIANA

CITY           SKY/WX    TMP DP  RH WIND       PRES   REMARKS
N.O. AUDUBON     N/A     53  39  59 MISG        N/A
N.O. INTL ARPT CLEAR     50  40  68 NE7       30.20R
N.O. LAKEFRONT CLEAR     53  41  63 E9        30.21S
N.O. DOWNTOWN*   N/A     52  36  54 NE8       30.21R
SLIDELL        CLEAR     42  36  79 NE6       30.21R
BATON ROUGE    CLEAR     44  35  70 E5        30.20R
BOOTHVILLE     CLEAR     51  46  83 NE5       30.20R
BELLE CHASSE   CLEAR     46  37  71 NE3       30.21R
BOGALUSA*        N/A     36  33  90 CALM      30.23S
GALLIANO*      SUNNY     51  43  74 MISG      30.21R
NEW ROADS*       N/A     46  36  66 SE3       30.20R
GONZALES*        N/A     46  40  78 CALM      30.20S
HAMMOND*       CLEAR     48  36  61 NE6       30.22R
HOUMA*         CLEAR     45  38  76 CALM      30.20R
PORT FOURCHON*   N/A     55  46  71 NE8       30.23R

$$

MSZ070-080>082-281200-
SOUTHERN MISSISSIPPI

CITY           SKY/WX    TMP DP  RH WIND       PRES   REMARKS
MCCOMB         CLEAR     45  35  68 NE3       30.21R
GULFPORT       CLEAR     40  36  86 NE3       30.21R
BILOXI         CLEAR     44  36  72 N3        30.22R
PASCAGOULA     CLEAR     37  36  96 CALM      30.22R

$$

COASTAL OBSERVATIONS
LAKE AND NEARSHORE STATIONS

STATION/POSITION TIME  TEMP    WIND        PRES    WAVE
                       AIR SEA DIR/SP/G            HT/PER
                 (UTC) (F)     (DEG/KT/KT) (MB)    (FT/S)
PASCAGOULA       1000   46      10/  6/  8 1022.4
WAVELAND YACHT   1000   49      30/  6/  7 1022.0
GRAND ISLE       1000   54 61   70/  6/  8 1022.9
SOUTHWEST PASS   1000   51 45   30/ 11/ 11 1022.4
NEW CANAL        1000   53 54   70/ 11/ 12 1022.8
SHELL BEACH      1000   52 54   50/ 11/ 12 1022.4

OFFSHORE STATIONS

STATION/POSITION TIME  TEMP    WIND        PRES    WAVE
                       AIR SEA DIR/SP/G            HT/PER
                 (UTC) (F)     (DEG/KT/KT) (MB)    (FT/S)
64 S DAUPHIN ISL 0957   60 66   40/ 16/ 17 1022.4    3/ 4

$$




USA.gov is the U.S. government's official web portal to all federal, state and local government web resources and services.